STARLINK-34244

Last updated on Tue Sep 16 2025 00:02:07 GMT+0000 (Coordinated Universal Time)

1 65351U 25190A 25258.05124300 .00078125 00000+0 13971-2 0 9999 2 65351 53.1591 268.3220 0001344 90.4699 269.6464 15.49341678 2803
UTC large
Height (km)
Speed (km/s)
/
Latitude / Longitude
Inclination (degrees)
Orbital Period (minutes)
Azimuth
Elevation
Range (km)
Doppler Factor

Next 0 passes for location: London (51.5072 / 0.1276)

Sorry there are no passes over London.